Regional Weather Roundup
Issued by NWS

Home | Current Version | Previous Version | Text Only | Print | Product List | Glossary On
Versions: 1 2 3 4 5 6 7 8 9 10 11 12 13 14 15 16 17 18 19 20 21 22 23 24 25 26 27 28 29 30 31 32 33 34 35 36 37 38 39 40 41 42 43 44 45 46 47 48 49 50
000
ASUS43 KMKX 210021
RWRWI

WISCONSIN REGIONAL WEATHER ROUNDUP
NATIONAL WEATHER SERVICE MILWAUKEE/SULLIVAN WI
700 PM CDT FRI OCT 20 2017

NOTE: "FAIR" INDICATES FEW OR NO CLOUDS BELOW 12,000 FEET WITH NO
SIGNIFICANT WEATHER AND/OR OBSTRUCTIONS TO VISIBILITY.

WIZ001-002-006>008-014>016-023>028-210100-
NORTHWEST WISCONSIN

CITY           SKY/WX    TMP DP  RH WIND       PRES   REMARKS
SUPERIOR ARPT  CLOUDY    53  50  90 N3        29.71S
6HR MIN TEMP:  53; 6HR MAX TEMP:  78;

ASHLAND        CLOUDY    71  41  33 S10G21    29.76S
6HR MIN TEMP:  71; 6HR MAX TEMP:  78;

HAYWARD        PTCLDY    69  44  40 S12       29.78S
6HR MIN TEMP:  68; 6HR MAX TEMP:  76;

SIREN          CLOUDY    70  39  32 S13G20    29.74S
6HR MIN TEMP:  70; 6HR MAX TEMP:  77;

CUMBERLAND     PTCLDY    63  39  42 S8        29.78S
RICE LAKE      PTCLDY    67  44  44 SE6       29.80S
6HR MIN TEMP:  67; 6HR MAX TEMP:  76;

CHETEK         PTCLDY    66  48  51 SE14G20   29.79F
6HR MIN TEMP:  66; 6HR MAX TEMP:  75;

LADYSMITH      PTCLDY    69  41  36 SE9G18    29.84F
6HR MIN TEMP:  68; 6HR MAX TEMP:  76;

EAU CLAIRE     CLOUDY    69  45  41 SE16      29.80F
6HR MIN TEMP:  69; 6HR MAX TEMP:  77;

MENOMONIE      PTCLDY    66  40  38 SE6       29.80S
6HR MIN TEMP:  66; 6HR MAX TEMP:  76;

NEW RICHMOND   CLOUDY    67  38  34 S10G18    29.77R
6HR MIN TEMP:  67; 6HR MAX TEMP:  76;

OSCEOLA        PTCLDY    69  41  36 SE14G21   29.77S
6HR MIN TEMP:  69; 6HR MAX TEMP:  78;

$$

WIZ003>005-009-010-017-018-210100-
NORTH CENTRAL WISCONSIN

CITY           SKY/WX    TMP DP  RH WIND       PRES   REMARKS
MANITOWISH WTR CLOUDY    63  46  54 S8        29.86S
6HR MIN TEMP:  63; 6HR MAX TEMP:  77;

ARBOR VITAE    CLOUDY    67  46  47 S9        29.88S
6HR MIN TEMP:  67; 6HR MAX TEMP:  77;

WOODRUFF       CLOUDY    67  46  47 S9        29.88S
6HR MIN TEMP:  67; 6HR MAX TEMP:  77;

RHINELANDER    PTCLDY    66  43  43 S8        29.91S
6HR MIN TEMP:  66; 6HR MAX TEMP:  75;

EAGLE RIVER    CLOUDY    64  38  38 S5        29.89F
6HR MIN TEMP:  64; 6HR MAX TEMP:  76;

LAND O LAKES   CLOUDY    66  40  38 S6        29.90S
PHILLIPS       CLOUDY    66  41  39 S9        29.85S
6HR MIN TEMP:  66; 6HR MAX TEMP:  74;

TOMAHAWK       CLOUDY    62  44  50 CALM      29.90S
6HR MIN TEMP:  62; 6HR MAX TEMP:  76;

MEDFORD        PTCLDY    62  43  49 S9        29.88F
6HR MIN TEMP:  61; 6HR MAX TEMP:  74;

MERRILL        CLOUDY    67  42  40 S5        29.91S
6HR MIN TEMP:  67; 6HR MAX TEMP:  77;

$$

WIZ029-030-035-036-043>047-210100-
CENTRAL WISCONSIN

CITY           SKY/WX    TMP DP  RH WIND       PRES   REMARKS
WAUSAU         CLOUDY    66  43  43 S9        29.90S
6HR MIN TEMP:  66; 6HR MAX TEMP:  74;

MOSINEE        MOCLDY    64  43  45 SE9       29.92F
MARSHFIELD     CLEAR     65  43  44 S10       29.89F
6HR MIN TEMP:  64; 6HR MAX TEMP:  76;

STEVENS POINT  PTCLDY    65  44  46 S7        29.93F
6HR MIN TEMP:  65; 6HR MAX TEMP:  76;

WAUPACA        PTCLDY    61  44  52 SE5       29.95S
6HR MIN TEMP:  61; 6HR MAX TEMP:  79;

WAUTOMA        PTCLDY    66  46  48 SE5       29.95S
6HR MIN TEMP:  66; 6HR MAX TEMP:  77;

WISC RAPIDS    CLOUDY    66  45  46 SE5       29.93S
6HR MIN TEMP:  66; 6HR MAX TEMP:  77;

CAMP DOUGLAS   NOT AVBL
$$

WIZ011>013-019>022-031-037>040-048>050-210100-
NORTHEAST WISCONSIN

CITY           SKY/WX    TMP DP  RH WIND       PRES   REMARKS
ANTIGO         CLOUDY    60  46  60 S10       29.94S
6HR MIN TEMP:  59; 6HR MAX TEMP:  74;

SHAWANO        MOCLDY    70  45  41 S3        29.94S
6HR MIN TEMP:  69; 6HR MAX TEMP:  78;

OCONTO         MOCLDY    62  53  71 S5        29.95S
6HR MIN TEMP:  62; 6HR MAX TEMP:  75;

STURGEON BAY   PTCLDY    60  53  77 S15       29.98R
6HR MIN TEMP:  59; 6HR MAX TEMP:  74;

GREEN BAY      CLOUDY    65  49  56 S5        29.96S
6HR MIN TEMP:  63; 6HR MAX TEMP:  74;

MANITOWOC      CLOUDY    59  52  77 SE7       29.99S
6HR MIN TEMP:  59; 6HR MAX TEMP:  70;

APPLETON       MOCLDY    64  43  45 S7        29.95F
CLINTONVILLE   PTCLDY    63  45  51 S7        29.94S
OSHKOSH        CLOUDY    60  47  61 S6        29.96S
6HR MIN TEMP:  59; 6HR MAX TEMP:  76;

$$

WIZ032>034-041-042-053>061-210100-
SOUTHWEST WISCONSIN

CITY           SKY/WX    TMP DP  RH WIND       PRES   REMARKS
LA CROSSE      CLOUDY    71  47  42 S12       29.85F
6HR MIN TEMP:  71; 6HR MAX TEMP:  78;

SPARTA         CLOUDY    68  48  49 SE9G16    29.89F
6HR MIN TEMP:  68; 6HR MAX TEMP:  76;

VIROQUA        CLOUDY    65  49  55 SE12      29.90F
6HR MIN TEMP:  65; 6HR MAX TEMP:  75;

BOSCOBEL       PTCLDY    71  47  42 VRB3      29.91F
6HR MIN TEMP:  71; 6HR MAX TEMP:  78;

PRAIRIE DU CHI CLOUDY    69  40  35 SE7       29.89S
6HR MIN TEMP:  69; 6HR MAX TEMP:  76;

PLATTEVILLE    CLOUDY    64  49  57 SE13      29.96R
6HR MIN TEMP:  64; 6HR MAX TEMP:  76;

$$

WIZ056-057-062-063-064-067-068-210100-
SOUTH CENTRAL WISCONSIN

CITY           SKY/WX    TMP DP  RH WIND       PRES   REMARKS
REEDSBURG      CLOUDY    67  46  46 SE3       29.93F
6HR MIN TEMP:  67; 6HR MAX TEMP:  76;

BARABOO/DELLS  CLOUDY    64  44  49 SE6       29.94F
6HR MIN TEMP:  63; 6HR MAX TEMP:  75;

LONE ROCK      CLOUDY    62  48  60 E7        29.93F
6HR MIN TEMP:  60; 6HR MAX TEMP:  76;

MINERAL POINT  CLEAR     66  46  48 S9        29.96R
MADISON        CLOUDY    68  48  48 S12       29.97R
6HR MIN TEMP:  68; 6HR MAX TEMP:  76;

MIDDLETON      CLOUDY    68  47  46 S8        29.97S
6HR MIN TEMP:  68; 6HR MAX TEMP:  78;

WATERTOWN      CLOUDY    65  49  55 SE6       29.98F
6HR MIN TEMP:  65; 6HR MAX TEMP:  78;

MONROE         CLOUDY    68  45  42 S14       29.98S
JANESVILLE     MOCLDY    70  48  46 S13       29.99S
$$

WIZ051-052-058>065-066-070>072-210100-
SOUTHEAST WISCONSIN

CITY           SKY/WX    TMP DP  RH WIND       PRES   REMARKS
MILWAUKEE      MOCLDY    68  53  58 S8        30.02S
6HR MIN TEMP:  66; 6HR MAX TEMP:  80;

WAUKESHA       CLEAR     70  46  43 S12       30.03R
MILWAUKEE/TIMM CLEAR     70  46  43 S8        30.02S
RACINE         CLOUDY    64  54  69 S6        30.04S
6HR MIN TEMP:  63; 6HR MAX TEMP:  77;

BURLINGTON     PTCLDY    65  51  60 S3        30.02S
6HR MIN TEMP:  65; 6HR MAX TEMP:  80;

KENOSHA        CLOUDY    67  50  54 S7        30.03S
6HR MIN TEMP:  66; 6HR MAX TEMP:  78;

FOND DU LAC    CLOUDY    65  46  50 S9        29.97S
6HR MIN TEMP:  64; 6HR MAX TEMP:  78;

SHEBOYGAN      CLOUDY    58  53  84 S9        30.00R
6HR MIN TEMP:  58; 6HR MAX TEMP:  78;

WEST BEND      CLOUDY    68  46  45 S7        30.00S
JUNEAU         CLOUDY    65  48  53 SE10      29.99F
6HR MIN TEMP:  65; 6HR MAX TEMP:  76;

$$

LSZ147-162-210100-
LAKE SUPERIOR

STATION/POSITION TIME  TEMP    WIND        PRES    WAVE
                       AIR SEA DIR/SP/G            HT/PER
                 (UTC) (F)     (DEG/KT/KT) (MB)    (FT/S)
W MID LAKE BUOY  2350   58 53              1007.5F   1
DEVILS ISLAND    0000   70     170/  8/ 11 1007.0R
PORT WING        2240          190/ 12/ 20 1007.1S
SAXON HARBOR     2340   73     190/  4/  8 1007.5S
$$

LMZ867-665-643>646-210100-
LAKE MICHIGAN

STATION/POSITION TIME  TEMP    WIND        PRES    WAVE
                       AIR SEA DIR/SP/G            HT/PER
                 (UTC) (F)     (DEG/KT/KT) (M


USA.gov is the U.S. government's official web portal to all federal, state and local government web resources and services.